This is the latest recevied weather packets stored in our database for station/object YO8SSH-13. If no packets are shown the sender has not sent any weather packets the latest 10 day(s).
| Time | Temp. | Humidity | Pressure | Rain* | Wind** | Luminosity | Snow |
|---|---|---|---|---|---|---|---|
| 1777635795 | 14.44° C | 32% | 1022 hPa | 0 mm | - | - | - |
| 1777634895 | 14.44° C | 32% | 1022 hPa | 0 mm | - | - | - |
| 1777633996 | 14.44° C | 31% | 1022 hPa | 0 mm | - | - | - |
| 1777633095 | 14.44° C | 31% | 1022 hPa | 0 mm | - | - | - |
| 1777632195 | 15° C | 31% | 1022 hPa | 0 mm | - | - | - |
| 1777631295 | 14.44° C | 31% | 1022 hPa | 0 mm | - | - | - |
| 1777630400 | 14.44° C | 31% | 1022 hPa | 0 mm | - | - | - |
| 1777629495 | 13.89° C | 31% | 1022 hPa | 0 mm | - | - | - |
| 1777628601 | 13.33° C | 32% | 1022 hPa | 0 mm | - | - | - |
| 1777627696 | 13.33° C | 32% | 1022 hPa | 0 mm | - | - | - |
| 1777626794 | 12.78° C | 32% | 1022 hPa | 0 mm | - | - | - |
| 1777625895 | 12.78° C | 33% | 1023 hPa | 0 mm | - | - | - |
| 1777624995 | 12.78° C | 33% | 1023 hPa | 0 mm | - | - | - |
| 1777624099 | 12.78° C | 32% | 1023 hPa | 0 mm | - | - | - |
| 1777623194 | 12.22° C | 33% | 1023 hPa | 0 mm | - | - | - |
| 1777622296 | 12.22° C | 34% | 1023 hPa | 0 mm | - | - | - |
| 1777621395 | 11.67° C | 34% | 1023 hPa | 0 mm | - | - | - |
| 1777620495 | 12.22° C | 35% | 1023 hPa | 0 mm | - | - | - |
| 1777619600 | 11.67° C | 36% | 1023 hPa | 0 mm | - | - | - |
| 1777618695 | 11.67° C | 37% | 1023 hPa | 0 mm | - | - | - |
| 1777617802 | 12.22° C | 39% | 1023 hPa | 0 mm | - | - | - |
| 1777616894 | 11.11° C | 40% | 1023 hPa | 0 mm | - | - | - |
| 1777615995 | 11.11° C | 43% | 1023 hPa | 0 mm | - | - | - |
| 1777615095 | 10° C | 48% | 1023 hPa | 0 mm | - | - | - |
| 1777614195 | 8.33° C | 50% | 1023 hPa | 0 mm | - | - | - |
* Rain latest hour (hover to see other rain measurements)
** Current wind speed in m/s (hover to see current wind gust speed)